N0ZJT Weather Reports


time (UTC)temp
C
wind
direction
speed
KPH
gust
KPH
rain 1hr
cm
rain 24hr
cm
rain mn
cm
humidity
%
barometer
mb
20260504045850 13 0 0.0 0.0 0.00 0.00 0.00 48 967.5
20260504044450 13 0 0.0 0.0 0.00 0.00 0.00 46 967.7
20260504042850 14 0 0.0 0.0 0.00 0.00 0.00 46 967.8
20260504041450 14 0 0.0 0.0 0.00 0.00 0.00 45 968.0
20260504035850 15 0 0.0 0.0 0.00 0.00 0.00 44 968.3
20260504034450 15 0 0.0 0.0 0.00 0.00 0.00 43 968.2
20260504032850 15 0 0.0 0.0 0.00 0.00 0.00 44 968.3
20260504031450 16 0 0.0 0.0 0.00 0.00 0.00 44 968.4
20260504025850 16 0 0.0 0.0 0.00 0.00 0.00 44 968.3
20260504024450 16 0 0.0 0.0 0.00 0.00 0.00 41 968.5
20260504022850 17 0 0.0 0.0 0.00 0.00 0.00 39 968.4
20260504021450 17 0 0.0 0.0 0.00 0.00 0.00 40 968.3
20260504015850 18 0 0.0 0.0 0.00 0.00 0.00 38 968.1
20260504014450 18 0 0.0 0.0 0.00 0.00 0.00 36 968.0
20260504012850 19 0 0.0 0.0 0.00 0.00 0.00 32 967.9
20260504011450 20 0 0.0 3.2 0.00 0.00 0.00 31 967.7
20260504005850 20 91 3.2 4.8 0.00 0.00 0.00 29 967.7
20260504004450 21 109 3.2 9.7 0.00 0.00 0.00 29 967.4
20260504002850 21 80 6.4 8.0 0.00 0.00 0.00 27 967.5
20260504001450 21 147 3.2 19.3 0.00 0.00 0.00 28 967.4
20260503235850 22 180 6.4 8.0 0.00 0.00 0.00 27 967.4
20260503234450 22 184 6.4 12.9 0.00 0.00 0.00 26 967.1
20260503232850 23 115 6.4 19.3 0.00 0.00 0.00 26 967.3
20260503231450 23 89 4.8 17.7 0.00 0.00 0.00 26 967.3
20260503225850 23 156 6.4 16.1 0.00 0.00 0.00 25 967.2
20260503224450 23 121 12.9 17.7 0.00 0.00 0.00 25 967.4
20260503222850 23 117 4.8 12.9 0.00 0.00 0.00 25 967.1
20260503221450 24 180 6.4 20.9 0.00 0.00 0.00 24 967.1
20260503215850 24 74 16.1 19.3 0.00 0.00 0.00 26 967.0
20260503214450 24 143 11.3 20.9 0.00 0.00 0.00 25 967.1
20260503212850 24 172 6.4 17.7 0.00 0.00 0.00 26 967.1
20260503211450 24 116 9.7 16.1 0.00 0.00 0.00 27 967.0
20260503205850 25 120 12.9 20.9 0.00 0.00 0.00 27 967.1
20260503204450 25 141 4.8 12.9 0.00 0.00 0.00 28 967.2
20260503202850 25 160 9.7 17.7 0.00 0.00 0.00 29 967.3
20260503201450 24 71 6.4 16.1 0.00 0.00 0.00 28 967.3
20260503195850 24 82 16.1 22.5 0.00 0.00 0.00 30 967.5
20260503194450 24 213 6.4 17.7 0.00 0.00 0.00 31 967.4
20260503192850 24 144 14.5 27.4 0.00 0.00 0.00 30 967.6
20260503191450 24 180 6.4 17.7 0.00 0.00 0.00 31 967.4
20260503185850 23 89 11.3 19.3 0.00 0.00 0.00 30 967.6
20260503184450 23 107 8.0 12.9 0.00 0.00 0.00 32 967.7
20260503182850 23 84 4.8 19.3 0.00 0.00 0.00 33 967.7
20260503181450 22 93 6.4 14.5 0.00 0.00 0.00 36 967.8
20260503175850 22 172 6.4 14.5 0.00 0.00 0.00 35 968.1
20260503174450 22 50 6.4 14.5 0.00 0.00 0.00 38 968.2
20260503172850 21 70 3.2 6.4 0.00 0.00 0.00 38 968.3
20260503171450 20 102 8.0 16.1 0.00 0.00 0.00 38 968.5
20260503081450 11 92 3.2 4.8 0.00 0.00 0.00 50 974.5
20260503072850 11 243 4.8 14.5 0.00 0.00 0.00 46 974.1
20260503071450 10 0 0.0 3.2 0.00 0.00 0.00 48 974.5